Flag for U.S.A. Weather past 2 weeks in St. Paul, Minnesota, U.S.A.

Now
55 °F

Clear.


Feels Like: 55 °F
Forecast: 51 / 69 °F
Wind: No wind

Location: St. Paul Downtown Holman Field

Current Time: Sep 23, 2014 at 2:00:58 AM

Latest Report: Sep 23, 2014 at 12:53 AM


Visibility: 10 mi

Pressure: 30.18 "Hg

Humidity: 93%

Dew point: 53 °F

Location of St. PaulLocation

Historic Weather in St. Paul — Graph

°F

St. Paul temperature yesterday

Maximum temperature yesterday: 71 °F (at 3:53 PM)
Minimum temperature yesterday: 47 °F (at 4:53 AM)
Average temperature yesterday: 58 °F

Past Weeks' High & Low Weather Summary

 TemperatureHumidityPressure
High79 °F (Sep 19, 4:53 PM)100% (Sep 13, 6:53 AM)30.45 "Hg (Sep 13, 6:53 AM)
Low37 °F (Sep 13, 6:53 AM)38% (Sep 14, 3:53 PM)29.64 "Hg (Sep 10, 3:53 AM)
Average58 °F74%30.06 "Hg
* Reported Sep 8 12:53 AM — Sep 23 12:53 AM, St. Paul, Weather by CustomWeather, © 2014

Note: Actual official high and low records may vary slightly from our data, if they occured in-between our weather recording intervals... More about our weather records

Advertising

St. Paul weather history for previous 24 hours

 ConditionsComfort  
Time TempWeatherWind HumidityBarometerVisibility
12:53 AM
Sep 23
55 °FClear.No wind93%30.18 "Hg10 mi
11:53 PM
Sep 22
55 °FClear.3 mph93%30.18 "Hg10 mi
10:53 PM57 °FClear.3 mph87%30.18 "Hg10 mi
9:53 PM57 °FClear.3 mph90%30.17 "Hg10 mi
8:53 PM57 °FClear.3 mph87%30.17 "Hg10 mi
7:53 PM58 °FSunny.5 mph84%30.16 "Hg10 mi
6:53 PM66 °FSunny.5 mph61%30.15 "Hg10 mi
5:53 PM70 °FSunny.8 mph49%30.16 "Hg10 mi
4:53 PM70 °FSunny.6 mph51%30.17 "Hg10 mi
3:53 PM71 °FSunny.8 mph47%30.19 "Hg10 mi
2:53 PM70 °FSunny.8 mph51%30.20 "Hg10 mi
1:53 PM69 °FPassing clouds.6 mph51%30.22 "Hg10 mi
12:53 PM67 °FSunny.7 mph57%30.24 "Hg10 mi
11:53 AM65 °FSunny.7 mph61%30.25 "Hg10 mi
10:53 AM61 °FSunny.7 mph70%30.27 "Hg10 mi
9:53 AM58 °FSunny.7 mph78%30.28 "Hg10 mi
8:53 AM52 °FSunny.5 mph97%30.28 "Hg10 mi
7:53 AM47 °FFog.No wind100%30.28 "Hg0 mi
6:53 AM48 °FFog.No wind96%30.26 "Hg0 mi
5:53 AM48 °FClear.No wind96%30.24 "Hg7 mi
4:53 AM47 °FClear.No wind100%30.24 "Hg10 mi
3:53 AM49 °FClear.No wind100%30.23 "Hg10 mi
2:53 AM49 °FClear.No wind100%30.22 "Hg10 mi
Weather by CustomWeather, © 2014

See weather overviewHow to use our weather pages